User: anonymous   Login
Location: Radomski Observatory
(40.2854°N, 79.5145°W)
Time: 23:31:59
(UTC-05:00)
Language:

Uosat F - Orbit

View from above orbital plane
View from above orbital plane
View from above satellite
View from above satellite

Ground track
Ground track

The orbit data is extracted from the following two-line orbital elements,

1 21575U 91050B   17052.10591862  .00000028  00000-0  23432-4 0  9990
2 21575  98.7624  65.7114 0006253 288.5672  71.4837 14.40784069344561
Epoch (UTC): 21 February 2017 02:32:31
Eccentricity: 0.0006253
inclination: 98.7624°
perigee height: 751 km
apogee height: 760 km
right ascension of ascending node: 65.7114°
argument of perigee: 288.5672°
revolutions per day: 14.40784069
mean anomaly at epoch: 71.4837°
orbit number at epoch: 34456

The dashed part of the orbit path shows where the satellite is in the earth's shadow,  

DLR